Regional Weather Roundup
Issued by NWS Albany, NY

Home | Current Version | Previous Version | Text Only | Print | Product List | Glossary On
Versions: 1 2 3 4 5 6 7 8 9 10 11 12 13 14 15 16 17 18 19 20 21 22 23 24 25 26 27 28 29 30 31 32 33 34 35 36 37 38 39 40 41 42 43 44 45 46 47 48 49 50
000
ASUS41 KALY 170710
RWRALY

NEW YORK STATE HOURLY WEATHER ROUNDUP
NATIONAL WEATHER SERVICE ALBANY NY
300 AM EDT FRI APR 17 2015

NOTE: "FAIR" INDICATES FEW OR NO CLOUDS BELOW 12,000 FEET WITH NO
SIGNIFICANT WEATHER AND/OR NO OBSTRUCTIONS TO VISIBILITY.

NYZ032-033-038>043-046>054-057>066-NYZ062>081-170800-
EAST


CITY           SKY/WX    TMP DP  RH WIND       PRES   REMARKS
ALBANY         LGT RAIN  50  42  74 SE3       30.12F
GLENS FALLS    LGT RAIN  52  36  54 S8        30.10F
POUGHKEEPSIE   LGT RAIN  52  46  80 SE3       30.16F
NEWBURGH       LGT RAIN  52  48  87 VRB3      30.17F
MONTGOMERY     LGT RAIN  49  31  49 CALM      30.15F
WHITE PLAINS   LGT RAIN  51  43  74 SE3       30.17F
NEW YORK CITY  CLOUDY    56  44  64 S6        30.18F
CENTRAL PARK   CLOUDY    59  44  57 CALM      30.20F
$$

NYZ005>009-017-018-044>046-055-056-170800-
CENTRAL


CITY           SKY/WX    TMP DP  RH WIND       PRES   REMARKS
FULTON         LGT RAIN  50  47  89 S7        30.04F FOG
SYRACUSE       LGT RAIN  51  47  86 SE3       30.05F
ROME           LGT RAIN  53  43  68 S3        30.08F
ELMIRA         LGT RAIN  54  48  80 W8        30.05F
BINGHAMTON     LGT RAIN  50  45  83 SW10      30.06F
MONTICELLO     CLOUDY    46  43  87 S6        30.14F
$$

NYZ026>034-041>043-170800-
NORTH


CITY           SKY/WX    TMP DP  RH WIND       PRES   REMARKS
WATERTOWN      LGT RAIN  45  41  86 S6        30.04F FOG
FORT DRUM      NOT AVBL
MASSENA        LGT RAIN  54  40  59 SW12      29.99F
SARANAC LAKE   LGT RAIN  44  42  93 CALM      30.01F
PLATTSBURGH    LGT RAIN  57  37  47 SW12G18   30.02S
$$

NYZ001>004-010>016-019>021-170800-
WEST


CITY           SKY/WX    TMP DP  RH WIND       PRES   REMARKS
NIAGARA FALLS  LGT RAIN  49  48  97 SW8       30.02F FOG
BUFFALO        LGT RAIN  50  48  93 SW8       30.03S FOG
DUNKIRK        LGT RAIN  49  48  97 CALM      30.04F FOG
JAMESTOWN      CLOUDY    48  46  93 SW8       30.05F
WELLSVILLE     RAIN      49  46  90 SW8G23    30.05F FOG
ROCHESTER      LGT RAIN  51  50  96 SW6       30.02F
PENN YAN       CLOUDY    52  46  80 S14       30.03F
$$

             KEY
       WCI = WIND CHILL INDEX
       VSB = VISIBILITY
       HX  = HEAT INDEX
$$


USA.gov is the U.S. government's official web portal to all federal, state and local government web resources and services.